Home > Weather > Ramsey > Past weeks

Flag for Isle of Man Weather for the Past 2 Weeks in Ramsey, Isle of Man

Now
46 °F

Passing clouds.


Feels Like: 39 °F
Forecast: 47 / 53 °F
Wind: 17 mph from West

Location: Isle Of Man / Ronaldsway Airport

Current Time: May 3, 2016 at 8:55:37 AM

Latest Report: May 3, 2016 at 7:50 AM


Visibility: N/A

Pressure: 30.15 "Hg

Humidity: 82%

Dew Point: 41 °F

Location of RamseyLocation

Historic Weather in Ramsey — Graph

°F

Ramsey Temperature Yesterday

Maximum temperature yesterday: 54 °F (at 11:20 AM)
Minimum temperature yesterday: 45 °F (at 5:50 PM)
Average temperature yesterday: 50 °F

High & Low Weather Summary for the Past Weeks

 TemperatureHumidityPressure
High59 °F (Apr 21, 4:20 PM)100% (Apr 28, 11:50 AM)30.45 "Hg (Apr 28, 11:50 AM)
Low36 °F (Apr 27, 2:50 AM)33% (Apr 21, 1:50 PM)29.62 "Hg (Apr 29, 2:50 AM)
Average47 °F72%30.07 "Hg
* Reported Apr 18 7:20 AM — May 3 7:20 AM, Ramsey, Weather by CustomWeather, © 2016

Note: Actual official high and low records may vary slightly from our data, if they occured in-between our weather recording intervals... More about our weather records

Advertising

Ramsey Weather History for the Previous 24 Hours

Scroll right to see more
 ConditionsComfort  
Time TempWeatherWind HumidityBarometerVisibility
7:20 AM
Tue, May 3
46 °FPassing clouds.16 mph82%30.15 "HgN/A
6:50 AM45 °FPassing clouds.16 mph87%30.12 "HgN/A
6:20 AM45 °FPassing clouds.15 mph87%30.12 "HgN/A
5:50 AM45 °FPassing clouds.16 mph87%30.12 "HgN/A
5:20 AM45 °FPassing clouds.15 mph87%30.12 "HgN/A
4:50 AM45 °FPassing clouds.14 mph87%30.12 "HgN/A
4:20 AM45 °FPassing clouds.15 mph87%30.12 "HgN/A
3:50 AM45 °FPassing clouds.15 mph87%30.12 "HgN/A
2:50 AM45 °FPassing clouds.15 mph87%30.09 "HgN/A
1:50 AM45 °FPassing clouds.15 mph87%30.09 "HgN/A
12:50 AM45 °FPassing clouds.12 mph81%30.09 "HgN/A
11:50 PM
Mon, May 2
46 °FPassing clouds.13 mph76%30.07 "HgN/A
10:50 PM45 °FPassing clouds.10 mph76%30.07 "HgN/A
9:50 PM48 °FPassing clouds.14 mph71%30.04 "HgN/A
9:20 PM46 °FPassing clouds.16 mph76%30.04 "HgN/A
8:50 PM48 °FPassing clouds.15 mph71%30.04 "HgN/A
8:20 PM48 °FPassing clouds.15 mph76%30.01 "HgN/A
7:50 PM48 °FPassing clouds.13 mph71%30.01 "HgN/A
7:20 PM46 °FPassing clouds.15 mph82%30.01 "HgN/A
6:50 PM48 °FPassing clouds.15 mph76%29.98 "HgN/A
6:20 PM48 °FScattered clouds.9 mph71%29.98 "HgN/A
5:50 PM45 °FSprinkles. Broken clouds.23 mph87%29.98 "HgN/A
5:20 PM50 °FPassing clouds.17 mph67%29.95 "HgN/A
4:50 PM52 °FPassing clouds.16 mph62%29.95 "HgN/A
4:20 PM52 °FPassing clouds.17 mph62%29.95 "HgN/A
3:50 PM52 °FPassing clouds.13 mph72%29.95 "HgN/A
3:20 PM52 °FPassing clouds.18 mph62%29.95 "HgN/A
2:50 PM54 °FPartly sunny.18 mph58%29.92 "HgN/A
2:20 PM52 °FPassing clouds.21 mph58%29.92 "HgN/A
1:50 PM52 °FPassing clouds.22 mph67%29.92 "HgN/A
1:20 PM50 °FPassing clouds.22 mph67%29.92 "HgN/A
12:50 PM52 °FPassing clouds.21 mph67%29.89 "HgN/A
12:20 PM54 °FPassing clouds.18 mph72%29.89 "HgN/A
11:50 AM54 °FPassing clouds.18 mph77%29.89 "HgN/A
11:20 AM54 °FPassing clouds.17 mph77%29.89 "HgN/A
10:50 AM52 °FPassing clouds.15 mph88%29.89 "HgN/A
10:20 AM52 °FPassing clouds.18 mph82%29.86 "HgN/A
9:50 AM50 °FPassing clouds.18 mph88%29.86 "HgN/A
9:20 AM48 °FPassing clouds.20 mph87%29.86 "HgN/A
8:50 AM48 °FLight rain. Passing clouds.21 mph87%29.83 "HgN/A
8:20 AM50 °FRain. Partly sunny.16 mph94%29.83 "HgN/A
Weather by CustomWeather, © 2016

See weather overviewHow to use our weather pages